| time (UTC) | temp C | wind direction | speed KPH | gust KPH | rain 1hr cm | rain 24hr cm | rain mn cm | humidity % | barometer mb |
| 20260507150106 | 8 | 270 | 9.7 | 32.2 | 0.00 | 1.27 | 0.00 | 53 | 1007.3 |
| 20260507145546 | 7 | 211 | 11.3 | 29.0 | 0.00 | 1.40 | 0.00 | 54 | 1007.2 |
| 20260507145047 | 7 | 244 | 6.4 | 24.1 | 0.00 | 1.40 | 0.00 | 59 | 1007.3 |
| 20260507144606 | 7 | 246 | 6.4 | 24.1 | 0.00 | 1.40 | 0.00 | 63 | 1007.2 |
| 20260507144049 | 7 | 259 | 8.0 | 24.1 | 0.00 | 1.40 | 0.00 | 62 | 1007.3 |
| 20260507143549 | 7 | 239 | 8.0 | 24.1 | 0.00 | 1.40 | 0.00 | 65 | 1007.3 |
| 20260507143102 | 7 | 259 | 4.8 | 17.7 | 0.00 | 1.40 | 0.00 | 67 | 1007.4 |
| 20260507142548 | 7 | 190 | 4.8 | 20.9 | 0.00 | 1.40 | 0.00 | 64 | 1007.4 |
| 20260507142048 | 7 | 18 | 6.4 | 20.9 | 0.00 | 1.40 | 0.00 | 66 | 1007.4 |
| 20260507141553 | 7 | 211 | 4.8 | 17.7 | 0.00 | 1.40 | 0.00 | 66 | 1007.5 |
| 20260507141048 | 7 | 301 | 4.8 | 17.7 | 0.00 | 1.40 | 0.00 | 68 | 1007.5 |
| 20260507140550 | 7 | 295 | 3.2 | 19.3 | 0.00 | 1.40 | 0.00 | 70 | 1007.5 |
| 20260507140053 | 6 | 250 | 4.8 | 20.9 | 0.00 | 1.40 | 0.00 | 70 | 1007.4 |
| 20260507135552 | 6 | 267 | 6.4 | 20.9 | 0.00 | 1.63 | 0.00 | 71 | 1007.5 |
| 20260507135048 | 6 | 221 | 6.4 | 16.1 | 0.00 | 1.63 | 0.00 | 72 | 1007.5 |
| 20260507134550 | 6 | 246 | 6.4 | 16.1 | 0.00 | 1.63 | 0.00 | 74 | 1007.5 |
| 20260507134049 | 6 | 232 | 1.6 | 22.5 | 0.00 | 1.63 | 0.00 | 72 | 1007.5 |
| 20260507133548 | 6 | 211 | 4.8 | 22.5 | 0.00 | 1.63 | 0.00 | 73 | 1007.5 |
| 20260507133100 | 6 | 255 | 4.8 | 16.1 | 0.00 | 1.63 | 0.00 | 76 | 1007.5 |
| 20260507132547 | 6 | 278 | 4.8 | 16.1 | 0.00 | 1.63 | 0.00 | 74 | 1007.4 |
| 20260507132047 | 6 | 239 | 4.8 | 14.5 | 0.00 | 1.63 | 0.00 | 78 | 1007.4 |
| 20260507131610 | 6 | 291 | 4.8 | 14.5 | 0.00 | 1.63 | 0.00 | 80 | 1007.3 |
| 20260507131049 | 5 | 292 | 1.6 | 12.9 | 0.00 | 1.63 | 0.00 | 82 | 1007.4 |
| 20260507130549 | 5 | 240 | 3.2 | 12.9 | 0.00 | 1.63 | 0.00 | 83 | 1007.5 |
| 20260507130052 | 6 | 155 | 3.2 | 12.9 | 0.00 | 1.63 | 0.00 | 86 | 1007.6 |
| 20260507125548 | 6 | 280 | 6.4 | 17.7 | 0.00 | 1.91 | 0.00 | 82 | 1007.5 |
| 20260507125049 | 5 | 225 | 6.4 | 17.7 | 0.00 | 1.91 | 0.00 | 84 | 1007.5 |
| 20260507124553 | 5 | 241 | 3.2 | 11.3 | 0.00 | 1.91 | 0.00 | 87 | 1007.5 |
| 20260507124048 | 5 | 269 | 1.6 | 11.3 | 0.00 | 1.91 | 0.00 | 89 | 1007.5 |
| 20260507123548 | 5 | 253 | 4.8 | 11.3 | 0.00 | 1.91 | 0.00 | 86 | 1007.5 |
| 20260507123051 | 5 | 0 | 1.6 | 6.4 | 0.00 | 1.91 | 0.00 | 89 | 1007.4 |
| 20260507122548 | 5 | 0 | 0.0 | 3.2 | 0.00 | 1.91 | 0.00 | 90 | 1007.4 |
| 20260507122049 | 5 | 227 | 0.0 | 8.0 | 0.00 | 1.91 | 0.00 | 90 | 1007.4 |
| 20260507121554 | 5 | 203 | 1.6 | 12.9 | 0.00 | 1.91 | 0.00 | 91 | 1007.2 |
| 20260507121048 | 5 | 234 | 3.2 | 12.9 | 0.00 | 1.91 | 0.00 | 91 | 1007.2 |
| 20260507120547 | 5 | 291 | 3.2 | 12.9 | 0.00 | 1.91 | 0.00 | 92 | 1007.3 |
| 20260507120058 | 5 | 255 | 3.2 | 12.9 | 0.00 | 1.91 | 0.00 | 93 | 1007.3 |
| 20260507115549 | 5 | 273 | 4.8 | 14.5 | 0.00 | 1.93 | 0.00 | 93 | 1007.3 |
| 20260507115047 | 5 | 266 | 3.2 | 14.5 | 0.00 | 1.93 | 0.00 | 95 | 1007.2 |
| 20260507114553 | 4 | 279 | 3.2 | 14.5 | 0.00 | 1.93 | 0.00 | 96 | 1007.1 |
| 20260507114047 | 4 | 347 | 0.0 | 3.2 | 0.00 | 1.93 | 0.00 | 96 | 1007.2 |
| 20260507113556 | 4 | 0 | 0.0 | 3.2 | 0.00 | 1.93 | 0.00 | 96 | 1007.1 |
| 20260507113100 | 4 | 152 | 0.0 | 3.2 | 0.00 | 1.93 | 0.00 | 96 | 1007.1 |
| 20260507112549 | 4 | 0 | 0.0 | 4.8 | 0.00 | 1.93 | 0.00 | 96 | 1007.0 |
| 20260507112047 | 4 | 0 | 0.0 | 4.8 | 0.00 | 1.93 | 0.00 | 96 | 1007.1 |
| 20260507111549 | 4 | 196 | 1.6 | 6.4 | 0.00 | 1.93 | 0.00 | 96 | 1007.1 |
| 20260507111048 | 4 | 154 | 1.6 | 6.4 | 0.00 | 1.93 | 0.00 | 95 | 1007.1 |
| 20260507110547 | 4 | 192 | 1.6 | 6.4 | 0.00 | 1.93 | 0.00 | 96 | 1007.2 |
| 20260507110053 | 4 | 208 | 1.6 | 4.8 | 0.00 | 1.93 | 0.00 | 96 | 1007.1 |
| 20260507105543 | 4 | 234 | 1.6 | 4.8 | 0.00 | 1.98 | 0.00 | 96 | 1007.2 |
| 20260507105048 | 4 | 198 | 0.0 | 4.8 | 0.00 | 1.98 | 0.00 | 96 | 1007.1 |
| 20260507104548 | 4 | 201 | 1.6 | 8.0 | 0.00 | 1.98 | 0.00 | 96 | 1007.0 |
| 20260507104047 | 4 | 202 | 1.6 | 8.0 | 0.00 | 1.98 | 0.00 | 96 | 1007.0 |
| 20260507103548 | 4 | 178 | 1.6 | 6.4 | 0.00 | 1.98 | 0.00 | 96 | 1007.0 |
| 20260507103052 | 3 | 224 | 1.6 | 4.8 | 0.00 | 1.98 | 0.00 | 96 | 1007.0 |
| 20260507102547 | 4 | 213 | 1.6 | 6.4 | 0.00 | 1.98 | 0.00 | 96 | 1006.9 |
| 20260507102049 | 4 | 196 | 1.6 | 6.4 | 0.00 | 1.98 | 0.00 | 96 | 1007.0 |
| 20260507101554 | 4 | 162 | 1.6 | 4.8 | 0.00 | 1.98 | 0.00 | 97 | 1007.0 |
| 20260507101048 | 4 | 204 | 0.0 | 6.4 | 0.00 | 1.98 | 0.00 | 97 | 1006.8 |
| 20260507100547 | 4 | 196 | 1.6 | 6.4 | 0.00 | 1.98 | 0.00 | 97 | 1006.9 |
| 20260507100049 | 4 | 219 | 3.2 | 6.4 | 0.00 | 1.98 | 0.00 | 97 | 1006.8 |
| 20260507095548 | 3 | 190 | 1.6 | 4.8 | 0.00 | 1.98 | 0.00 | 97 | 1006.8 |
| 20260507095048 | 3 | 0 | 0.0 | 3.2 | 0.00 | 1.98 | 0.00 | 97 | 1006.8 |
| 20260507094551 | 3 | 0 | 0.0 | 6.4 | 0.00 | 1.98 | 0.00 | 97 | 1006.7 |
| 20260507094048 | 3 | 185 | 0.0 | 6.4 | 0.00 | 1.98 | 0.00 | 97 | 1006.7 |
| 20260507093548 | 3 | 219 | 1.6 | 9.7 | 0.00 | 1.98 | 0.00 | 97 | 1006.9 |
| 20260507093054 | 3 | 0 | 1.6 | 9.7 | 0.00 | 1.98 | 0.00 | 97 | 1007.1 |
| 20260507092550 | 3 | 240 | 0.0 | 9.7 | 0.00 | 1.98 | 0.00 | 97 | 1007.1 |
| 20260507092049 | 3 | 239 | 0.0 | 9.7 | 0.00 | 1.98 | 0.00 | 97 | 1006.9 |
| 20260507091548 | 3 | 0 | 0.0 | 0.0 | 0.00 | 1.98 | 0.00 | 97 | 1006.9 |
| 20260507091050 | 3 | 0 | 0.0 | 0.0 | 0.00 | 1.98 | 0.00 | 97 | 1006.8 |
| 20260507090549 | 3 | 0 | 0.0 | 0.0 | 0.00 | 1.98 | 0.00 | 97 | 1006.9 |
| 20260507090049 | 3 | 0 | 0.0 | 0.0 | 0.00 | 1.98 | 0.00 | 97 | 1006.7 |
| 20260507085548 | 3 | 0 | 0.0 | 0.0 | 0.00 | 2.16 | 0.00 | 97 | 1006.8 |
| 20260507085048 | 3 | 0 | 0.0 | 0.0 | 0.00 | 2.16 | 0.00 | 97 | 1006.7 |
| 20260507084551 | 3 | 0 | 0.0 | 0.0 | 0.00 | 2.16 | 0.00 | 97 | 1006.8 |
| 20260507084048 | 3 | 0 | 0.0 | 0.0 | 0.00 | 2.16 | 0.00 | 97 | 1007.1 |
| 20260507083547 | 3 | 0 | 0.0 | 0.0 | 0.00 | 2.16 | 0.00 | 97 | 1007.2 |
| 20260507083050 | 3 | 0 | 0.0 | 0.0 | 0.00 | 2.16 | 0.00 | 97 | 1007.2 |
| 20260507082548 | 3 | 0 | 0.0 | 0.0 | 0.00 | 2.16 | 0.00 | 97 | 1007.2 |
| 20260507082048 | 3 | 0 | 0.0 | 0.0 | 0.00 | 2.16 | 0.00 | 97 | 1007.1 |
| 20260507081554 | 3 | 0 | 0.0 | 0.0 | 0.00 | 2.16 | 0.00 | 97 | 1007.2 |
| 20260507081048 | 3 | 0 | 0.0 | 1.6 | 0.00 | 2.16 | 0.00 | 97 | 1007.1 |
| 20260507080548 | 3 | 0 | 0.0 | 1.6 | 0.00 | 2.16 | 0.00 | 97 | 1007.1 |
| 20260507080115 | 3 | 143 | 0.0 | 0.0 | 0.00 | 2.16 | 0.00 | 97 | 1007.2 |
| 20260507075550 | 3 | 0 | 0.0 | 0.0 | 0.00 | 2.24 | 0.00 | 97 | 1007.2 |
| 20260507075051 | 3 | 0 | 0.0 | 3.2 | 0.00 | 2.24 | 0.00 | 97 | 1007.1 |
| 20260507074602 | 3 | 0 | 0.0 | 3.2 | 0.00 | 2.24 | 0.00 | 97 | 1007.1 |
| 20260507074047 | 3 | 0 | 0.0 | 3.2 | 0.00 | 2.24 | 0.00 | 97 | 1007.2 |
| 20260507073549 | 3 | 144 | 0.0 | 3.2 | 0.00 | 2.24 | 0.00 | 97 | 1007.1 |
| 20260507073100 | 3 | 60 | 0.0 | 1.6 | 0.00 | 2.24 | 0.00 | 97 | 1007.1 |
| 20260507072548 | 3 | 0 | 0.0 | 0.0 | 0.00 | 2.24 | 0.00 | 97 | 1007.1 |
| 20260507072051 | 3 | 0 | 0.0 | 3.2 | 0.00 | 2.24 | 0.00 | 97 | 1007.0 |
| 20260507071610 | 3 | 0 | 0.0 | 3.2 | 0.00 | 2.24 | 0.00 | 97 | 1006.8 |
| 20260507071048 | 3 | 0 | 0.0 | 1.6 | 0.00 | 2.24 | 0.00 | 97 | 1006.9 |
| 20260507070548 | 3 | 0 | 0.0 | 1.6 | 0.00 | 2.24 | 0.00 | 97 | 1006.8 |
| 20260507070057 | 3 | 0 | 0.0 | 3.2 | 0.00 | 2.24 | 0.00 | 97 | 1006.9 |
| 20260507065548 | 3 | 0 | 0.0 | 3.2 | 0.00 | 2.26 | 0.00 | 97 | 1006.9 |
| 20260507065048 | 4 | 95 | 0.0 | 1.6 | 0.00 | 2.26 | 0.00 | 97 | 1006.9 |
| 20260507064552 | 4 | 0 | 0.0 | 3.2 | 0.00 | 2.26 | 0.00 | 97 | 1006.8 |
| 20260507064049 | 3 | 0 | 0.0 | 3.2 | 0.00 | 2.26 | 0.00 | 97 | 1006.7 |
| 20260507063548 | 3 | 0 | 0.0 | 0.0 | 0.00 | 2.26 | 0.00 | 97 | 1006.7 |
| 20260507063056 | 4 | 0 | 0.0 | 0.0 | 0.00 | 2.26 | 0.00 | 97 | 1006.7 |
| 20260507062547 | 4 | 0 | 0.0 | 0.0 | 0.00 | 2.26 | 0.00 | 97 | 1007.0 |
| 20260507062048 | 4 | 0 | 0.0 | 0.0 | 0.00 | 2.26 | 0.00 | 97 | 1006.8 |
| 20260507061558 | 4 | 0 | 0.0 | 0.0 | 0.00 | 2.26 | 0.00 | 97 | 1006.8 |
| 20260507061049 | 4 | 0 | 0.0 | 1.6 | 0.00 | 2.26 | 0.00 | 97 | 1007.0 |
| 20260507060548 | 4 | 0 | 0.0 | 1.6 | 0.00 | 2.26 | 0.00 | 97 | 1006.8 |
| 20260507055548 | 4 | 0 | 0.0 | 0.0 | 0.00 | 2.31 | 0.00 | 97 | 1007.0 |
| 20260507055048 | 4 | 0 | 0.0 | 3.2 | 0.00 | 2.31 | 0.00 | 97 | 1007.0 |
| 20260507054602 | 4 | 0 | 0.0 | 3.2 | 0.00 | 2.31 | 0.00 | 97 | 1007.2 |
| 20260507054048 | 4 | 0 | 0.0 | 3.2 | 0.00 | 2.31 | 0.00 | 97 | 1007.4 |
| 20260507053551 | 4 | 0 | 0.0 | 3.2 | 0.00 | 2.31 | 0.00 | 97 | 1007.3 |
| 20260507053120 | 4 | 0 | 0.0 | 3.2 | 0.00 | 2.31 | 0.00 | 97 | 1007.1 |
| 20260507052547 | 4 | 338 | 0.0 | 3.2 | 0.00 | 2.31 | 0.00 | 97 | 1007.1 |
| 20260507052047 | 4 | 0 | 0.0 | 3.2 | 0.00 | 2.31 | 0.00 | 97 | 1007.4 |
| 20260507051601 | 4 | 0 | 0.0 | 1.6 | 0.00 | 2.31 | 0.00 | 97 | 1007.6 |
| 20260507051052 | 4 | 0 | 0.0 | 1.6 | 0.00 | 2.31 | 0.00 | 97 | 1007.6 |
| 20260507050548 | 4 | 16 | 1.6 | 1.6 | 0.00 | 2.31 | 0.00 | 97 | 1007.3 |
| 20260507050054 | 4 | 16 | 0.0 | 1.6 | 0.00 | 2.31 | 0.00 | 97 | 1007.5 |
| 20260507045548 | 4 | 0 | 0.0 | 0.0 | 0.00 | 2.59 | 0.00 | 97 | 1007.8 |
| 20260507045048 | 4 | 0 | 0.0 | 0.0 | 0.00 | 2.59 | 0.00 | 97 | 1007.9 |
| 20260507044555 | 4 | 0 | 0.0 | 0.0 | 0.00 | 2.59 | 0.00 | 97 | 1007.8 |
| 20260507044048 | 4 | 0 | 0.0 | 0.0 | 0.00 | 2.59 | 0.00 | 97 | 1007.6 |
| 20260507043548 | 4 | 0 | 0.0 | 0.0 | 0.00 | 2.59 | 0.00 | 97 | 1007.6 |
| 20260507043054 | 4 | 0 | 0.0 | 0.0 | 0.00 | 2.59 | 0.00 | 97 | 1007.6 |
| 20260507042548 | 4 | 0 | 0.0 | 0.0 | 0.00 | 2.59 | 0.00 | 97 | 1007.6 |
| 20260507042048 | 4 | 0 | 0.0 | 3.2 | 0.00 | 2.59 | 0.00 | 97 | 1007.7 |
| 20260507041557 | 5 | 0 | 0.0 | 3.2 | 0.00 | 2.59 | 0.00 | 97 | 1007.6 |
| 20260507041051 | 5 | 331 | 1.6 | 3.2 | 0.00 | 2.59 | 0.00 | 97 | 1007.7 |
| 20260507040548 | 5 | 0 | 0.0 | 3.2 | 0.00 | 2.59 | 0.00 | 97 | 1007.8 |
| 20260507040100 | 5 | 0 | 0.0 | 3.2 | 0.00 | 2.59 | 0.00 | 97 | 1007.8 |
| 20260507035548 | 4 | 44 | 0.0 | 3.2 | 0.00 | 2.84 | 2.59 | 97 | 1007.7 |
| 20260507035047 | 5 | 0 | 0.0 | 1.6 | 0.00 | 2.84 | 2.59 | 97 | 1007.6 |
| 20260507034552 | 5 | 0 | 0.0 | 1.6 | 0.00 | 2.84 | 2.59 | 97 | 1007.6 |
| 20260507034048 | 5 | 0 | 0.0 | 3.2 | 0.00 | 2.84 | 2.59 | 97 | 1007.7 |
| 20260507033548 | 5 | 0 | 0.0 | 3.2 | 0.00 | 2.84 | 2.59 | 97 | 1007.9 |
| 20260507033052 | 5 | 0 | 0.0 | 3.2 | 0.00 | 2.84 | 2.59 | 97 | 1008.0 |
| 20260507032549 | 5 | 0 | 0.0 | 3.2 | 0.00 | 2.84 | 2.59 | 97 | 1008.1 |
| 20260507032048 | 5 | 0 | 0.0 | 3.2 | 0.00 | 2.84 | 2.59 | 97 | 1007.9 |
| 20260507031556 | 5 | 0 | 0.0 | 0.0 | 0.00 | 2.84 | 2.59 | 97 | 1007.8 |
| 20260507031048 | 5 | 0 | 0.0 | 0.0 | 0.00 | 2.84 | 2.59 | 97 | 1008.0 |
| 20260507030548 | 5 | 0 | 0.0 | 3.2 | 0.03 | 2.84 | 2.59 | 97 | 1008.0 |
| 20260507030051 | 5 | 0 | 0.0 | 3.2 | 0.03 | 2.84 | 2.59 | 97 | 1007.9 |
| 20260507025548 | 5 | 0 | 0.0 | 3.2 | 0.03 | 2.87 | 2.59 | 97 | 1008.0 |
| 20260507025052 | 5 | 0 | 0.0 | 3.2 | 0.03 | 2.87 | 2.59 | 97 | 1008.1 |
| 20260507024603 | 5 | 93 | 0.0 | 3.2 | 0.03 | 2.87 | 2.59 | 97 | 1007.9 |
| 20260507024048 | 5 | 93 | 0.0 | 3.2 | 0.05 | 2.87 | 2.59 | 97 | 1007.7 |
| 20260507023548 | 5 | 83 | 0.0 | 0.0 | 0.05 | 2.87 | 2.59 | 97 | 1007.7 |
| 20260507023051 | 5 | 0 | 0.0 | 0.0 | 0.05 | 2.87 | 2.59 | 97 | 1008.0 |
| 20260507022549 | 5 | 0 | 0.0 | 0.0 | 0.08 | 2.87 | 2.59 | 97 | 1008.0 |
| 20260507022047 | 5 | 0 | 0.0 | 0.0 | 0.08 | 2.87 | 2.59 | 97 | 1008.0 |
| 20260507021551 | 5 | 0 | 0.0 | 3.2 | 0.08 | 2.87 | 2.59 | 97 | 1008.2 |
| 20260507021047 | 5 | 0 | 0.0 | 3.2 | 0.08 | 2.87 | 2.59 | 97 | 1008.1 |
| 20260507020553 | 5 | 0 | 0.0 | 3.2 | 0.05 | 2.84 | 2.57 | 97 | 1007.9 |
| 20260507020053 | 5 | 0 | 0.0 | 3.2 | 0.05 | 2.84 | 2.57 | 97 | 1007.9 |
| 20260507015550 | 5 | 83 | 1.6 | 3.2 | 0.08 | 2.84 | 2.57 | 97 | 1008.0 |
| 20260507015048 | 5 | 0 | 0.0 | 3.2 | 0.08 | 2.84 | 2.57 | 97 | 1008.1 |
| 20260507014603 | 5 | 0 | 1.6 | 3.2 | 0.05 | 2.82 | 2.54 | 97 | 1008.3 |
| 20260507014048 | 5 | 60 | 0.0 | 3.2 | 0.08 | 2.82 | 2.54 | 97 | 1008.2 |
| 20260507013551 | 5 | 0 | 0.0 | 3.2 | 0.10 | 2.82 | 2.54 | 97 | 1008.3 |
| 20260507013053 | 5 | 0 | 0.0 | 0.0 | 0.10 | 2.82 | 2.54 | 97 | 1008.3 |
| 20260507012552 | 5 | 0 | 0.0 | 0.0 | 0.10 | 2.79 | 2.51 | 97 | 1008.3 |
| 20260507012048 | 5 | 0 | 0.0 | 0.0 | 0.10 | 2.79 | 2.51 | 97 | 1008.2 |
| 20260507011603 | 5 | 0 | 0.0 | 3.2 | 0.10 | 2.79 | 2.51 | 97 | 1008.1 |
| 20260507011047 | 5 | 0 | 0.0 | 3.2 | 0.10 | 2.79 | 2.51 | 97 | 1007.9 |
| 20260507010548 | 5 | 0 | 0.0 | 3.2 | 0.10 | 2.79 | 2.51 | 97 | 1008.0 |
| 20260507010104 | 5 | 0 | 0.0 | 1.6 | 0.10 | 2.79 | 2.51 | 97 | 1007.8 |
| 20260507005548 | 5 | 0 | 0.0 | 3.2 | 0.08 | 2.77 | 2.49 | 97 | 1007.8 |
| 20260507005048 | 5 | 0 | 0.0 | 3.2 | 0.10 | 2.77 | 2.49 | 97 | 1007.6 |
| 20260507004606 | 5 | 60 | 0.0 | 3.2 | 0.10 | 2.77 | 2.49 | 97 | 1007.7 |
| 20260507004048 | 5 | 60 | 0.0 | 0.0 | 0.08 | 2.74 | 2.46 | 96 | 1007.6 |
| 20260507003549 | 5 | 0 | 0.0 | 0.0 | 0.05 | 2.72 | 2.44 | 96 | 1007.6 |
| 20260507003056 | 5 | 0 | 0.0 | 0.0 | 0.05 | 2.72 | 2.44 | 96 | 1007.4 |
| 20260507002548 | 5 | 0 | 0.0 | 3.2 | 0.03 | 2.67 | 2.41 | 96 | 1007.4 |
| 20260507002048 | 5 | 0 | 0.0 | 3.2 | 0.03 | 2.67 | 2.41 | 96 | 1007.3 |
| 20260507001555 | 5 | 60 | 0.0 | 3.2 | 0.03 | 2.67 | 2.41 | 96 | 1007.2 |
| 20260507001050 | 5 | 0 | 0.0 | 1.6 | 0.05 | 2.67 | 2.41 | 96 | 1007.1 |
| 20260507000548 | 5 | 0 | 0.0 | 6.4 | 0.05 | 2.67 | 2.41 | 96 | 1007.1 |
| 20260507000051 | 5 | 0 | 0.0 | 6.4 | 0.05 | 2.67 | 2.41 | 96 | 1006.8 |
| 20260506235550 | 5 | 42 | 0.0 | 4.8 | 0.08 | 2.67 | 2.41 | 96 | 1006.6 |
| 20260506235048 | 5 | 352 | 0.0 | 3.2 | 0.05 | 2.64 | 2.39 | 96 | 1006.6 |
| 20260506234554 | 5 | 49 | 0.0 | 3.2 | 0.05 | 2.64 | 2.39 | 96 | 1006.5 |
| 20260506234047 | 5 | 46 | 1.6 | 3.2 | 0.05 | 2.64 | 2.39 | 96 | 1006.7 |
| 20260506233548 | 5 | 64 | 0.0 | 6.4 | 0.05 | 2.64 | 2.39 | 96 | 1006.7 |
| 20260506233056 | 5 | 0 | 1.6 | 6.4 | 0.05 | 2.64 | 2.39 | 96 | 1006.4 |
| 20260506232548 | 5 | 13 | 1.6 | 8.0 | 0.05 | 2.64 | 2.39 | 96 | 1006.4 |
| 20260506232048 | 5 | 13 | 4.8 | 8.0 | 0.05 | 2.64 | 2.39 | 96 | 1006.4 |
| 20260506231558 | 5 | 34 | 3.2 | 6.4 | 0.05 | 2.64 | 2.39 | 96 | 1006.6 |
| 20260506231052 | 5 | 40 | 1.6 | 4.8 | 0.03 | 2.64 | 2.36 | 96 | 1006.4 |
| 20260506230546 | 5 | 48 | 0.0 | 3.2 | 0.05 | 2.64 | 2.36 | 96 | 1006.5 |
| 20260506230059 | 5 | 0 | 0.0 | 6.4 | 0.05 | 2.64 | 2.36 | 96 | 1006.5 |
| 20260506225550 | 5 | 0 | 0.0 | 6.4 | 0.03 | 2.62 | 2.34 | 96 | 1006.4 |
| 20260506225048 | 5 | 10 | 1.6 | 4.8 | 0.03 | 2.62 | 2.34 | 96 | 1006.4 |
| 20260506224556 | 6 | 0 | 0.0 | 3.2 | 0.03 | 2.62 | 2.34 | 96 | 1006.3 |
| 20260506224046 | 6 | 68 | 0.0 | 3.2 | 0.03 | 2.62 | 2.34 | 96 | 1006.4 |
| 20260506223552 | 6 | 0 | 0.0 | 3.2 | 0.03 | 2.62 | 2.34 | 96 | 1006.6 |
| 20260506223100 | 6 | 0 | 0.0 | 6.4 | 0.03 | 2.62 | 2.34 | 96 | 1006.5 |
| 20260506222549 | 6 | 39 | 1.6 | 6.4 | 0.03 | 2.62 | 2.34 | 96 | 1006.4 |
| 20260506222047 | 6 | 0 | 0.0 | 4.8 | 0.03 | 2.62 | 2.34 | 97 | 1006.4 |
| 20260506221555 | 6 | 0 | 1.6 | 4.8 | 0.03 | 2.62 | 2.34 | 97 | 1006.2 |
| 20260506221048 | 6 | 43 | 1.6 | 4.8 | 0.03 | 2.62 | 2.34 | 97 | 1006.1 |
| 20260506220550 | 6 | 63 | 1.6 | 4.8 | 0.03 | 2.59 | 2.31 | 97 | 1006.2 |
| 20260506220056 | 6 | 69 | 1.6 | 4.8 | 0.03 | 2.59 | 2.31 | 97 | 1006.3 |
| 20260506215551 | 6 | 51 | 1.6 | 6.4 | 0.03 | 2.72 | 2.31 | 97 | 1006.2 |
| 20260506215048 | 6 | 44 | 1.6 | 9.7 | 0.03 | 2.72 | 2.31 | 97 | 1006.2 |
| 20260506214602 | 6 | 0 | 3.2 | 9.7 | 0.05 | 2.72 | 2.31 | 97 | 1006.1 |
| 20260506214048 | 6 | 54 | 1.6 | 4.8 | 0.05 | 2.72 | 2.31 | 97 | 1006.1 |
| 20260506213547 | 6 | 0 | 0.0 | 4.8 | 0.05 | 2.72 | 2.31 | 97 | 1006.1 |
| 20260506213056 | 6 | 30 | 0.0 | 4.8 | 0.05 | 2.72 | 2.31 | 97 | 1006.1 |
| 20260506212547 | 6 | 94 | 1.6 | 4.8 | 0.05 | 2.72 | 2.31 | 97 | 1006.1 |
| 20260506212047 | 6 | 63 | 3.2 | 6.4 | 0.05 | 2.72 | 2.31 | 97 | 1006.0 |
| 20260506211603 | 6 | 73 | 0.0 | 6.4 | 0.05 | 2.72 | 2.31 | 97 | 1006.1 |
| 20260506211047 | 6 | 60 | 3.2 | 6.4 | 0.05 | 2.72 | 2.31 | 97 | 1006.2 |
| 20260506210548 | 6 | 64 | 0.0 | 6.4 | 0.03 | 2.67 | 2.29 | 97 | 1006.1 |
| 20260506210051 | 6 | 80 | 3.2 | 6.4 | 0.03 | 2.67 | 2.29 | 97 | 1006.0 |
| 20260506205548 | 6 | 103 | 0.0 | 4.8 | 0.03 | 2.79 | 2.29 | 97 | 1006.2 |
| 20260506205048 | 6 | 76 | 1.6 | 4.8 | 0.05 | 2.79 | 2.29 | 97 | 1006.2 |
| 20260506204552 | 6 | 0 | 0.0 | 3.2 | 0.03 | 2.77 | 2.26 | 97 | 1006.1 |
| 20260506204049 | 6 | 82 | 0.0 | 3.2 | 0.05 | 2.77 | 2.26 | 97 | 1006.2 |
| 20260506203549 | 6 | 82 | 0.0 | 3.2 | 0.05 | 2.77 | 2.26 | 97 | 1006.1 |
| 20260506203052 | 6 | 0 | 0.0 | 3.2 | 0.05 | 2.77 | 2.26 | 97 | 1006.0 |
| 20260506202548 | 6 | 0 | 0.0 | 3.2 | 0.08 | 2.77 | 2.26 | 97 | 1005.9 |
| 20260506202048 | 6 | 101 | 1.6 | 3.2 | 0.08 | 2.77 | 2.26 | 97 | 1005.9 |
| 20260506201549 | 6 | 91 | 1.6 | 4.8 | 0.08 | 2.77 | 2.26 | 96 | 1006.1 |
| 20260506201047 | 6 | 59 | 1.6 | 4.8 | 0.10 | 2.77 | 2.26 | 96 | 1006.0 |
| 20260506200552 | 6 | 59 | 1.6 | 4.8 | 0.10 | 2.77 | 2.26 | 96 | 1006.0 |
| 20260506200103 | 6 | 90 | 1.6 | 4.8 | 0.10 | 2.77 | 2.26 | 96 | 1006.0 |
| 20260506195548 | 6 | 30 | 1.6 | 6.4 | 0.10 | 3.33 | 2.26 | 96 | 1005.9 |
| 20260506195051 | 6 | 0 | 1.6 | 6.4 | 0.08 | 3.30 | 2.24 | 96 | 1006.2 |
| 20260506194557 | 6 | 61 | 1.6 | 6.4 | 0.08 | 3.30 | 2.24 | 96 | 1006.1 |
| 20260506194049 | 6 | 86 | 0.0 | 6.4 | 0.05 | 3.28 | 2.21 | 96 | 1005.9 |
| 20260506193549 | 6 | 32 | 3.2 | 8.0 | 0.05 | 3.28 | 2.21 | 96 | 1006.2 |
| 20260506193056 | 6 | 61 | 1.6 | 8.0 | 0.05 | 3.28 | 2.21 | 96 | 1006.0 |
| 20260506192548 | 6 | 67 | 1.6 | 8.0 | 0.03 | 3.25 | 2.18 | 96 | 1006.1 |
| 20260506192053 | 6 | 96 | 3.2 | 8.0 | 0.03 | 3.25 | 2.18 | 96 | 1006.2 |
| 20260506191605 | 6 | 61 | 1.6 | 8.0 | 0.03 | 3.25 | 2.18 | 96 | 1006.0 |
| 20260506191048 | 6 | 76 | 1.6 | 6.4 | 0.03 | 3.23 | 2.16 | 96 | 1006.1 |
| 20260506190548 | 6 | 0 | 3.2 | 8.0 | 0.03 | 3.23 | 2.16 | 96 | 1006.1 |
| 20260506190053 | 6 | 23 | 1.6 | 8.0 | 0.03 | 3.23 | 2.16 | 96 | 1006.1 |
| 20260506185548 | 6 | 67 | 0.0 | 8.0 | 0.05 | 3.23 | 2.16 | 96 | 1006.2 |
| 20260506185048 | 6 | 0 | 1.6 | 8.0 | 0.08 | 3.23 | 2.16 | 96 | 1006.2 |
| 20260506184552 | 6 | 83 | 1.6 | 16.1 | 0.08 | 3.23 | 2.16 | 96 | 1006.2 |
| 20260506184048 | 6 | 70 | 4.8 | 16.1 | 0.13 | 3.23 | 2.16 | 96 | 1006.2 |
| 20260506183549 | 6 | 46 | 3.2 | 9.7 | 0.15 | 3.23 | 2.16 | 96 | 1006.2 |
| 20260506183108 | 6 | 86 | 4.8 | 9.7 | 0.20 | 3.23 | 2.16 | 96 | 1006.2 |
| 20260506182548 | 6 | 70 | 1.6 | 8.0 | 0.23 | 3.23 | 2.16 | 96 | 1006.4 |
| 20260506182048 | 6 | 83 | 3.2 | 8.0 | 0.25 | 3.23 | 2.16 | 96 | 1006.4 |
| 20260506181601 | 6 | 65 | 3.2 | 8.0 | 0.28 | 3.23 | 2.16 | 96 | 1006.5 |
| 20260506181048 | 6 | 100 | 1.6 | 11.3 | 0.25 | 3.20 | 2.13 | 96 | 1006.7 |
| 20260506180550 | 6 | 126 | 1.6 | 11.3 | 0.28 | 3.20 | 2.13 | 96 | 1007.0 |
| 20260506180113 | 5 | 63 | 1.6 | 6.4 | 0.30 | 3.20 | 2.13 | 96 | 1006.9 |
| 20260506175546 | 5 | 55 | 1.6 | 12.9 | 0.28 | 3.17 | 2.11 | 96 | 1006.8 |
| 20260506175046 | 5 | 67 | 1.6 | 14.5 | 0.28 | 3.15 | 2.08 | 96 | 1007.0 |
| 20260506174554 | 5 | 66 | 3.2 | 14.5 | 0.28 | 3.12 | 2.06 | 96 | 1006.9 |
| 20260506174048 | 5 | 66 | 3.2 | 11.3 | 0.28 | 3.10 | 2.03 | 96 | 1006.9 |
| 20260506173551 | 6 | 73 | 4.8 | 11.3 | 0.28 | 3.07 | 2.01 | 96 | 1007.0 |
| 20260506173126 | 6 | 62 | 0.0 | 9.7 | 0.25 | 3.02 | 1.96 | 96 | 1006.9 |
| 20260506172545 | 6 | 63 | 3.2 | 9.7 | 0.25 | 2.97 | 1.93 | 96 | 1006.9 |
| 20260506172046 | 6 | 31 | 0.0 | 12.9 | 0.25 | 2.95 | 1.91 | 96 | 1006.9 |
| 20260506171556 | 6 | 0 | 3.2 | 12.9 | 0.25 | 2.95 | 1.88 | 96 | 1007.0 |
| 20260506171049 | 6 | 39 | 1.6 | 14.5 | 0.33 | 2.95 | 1.88 | 96 | 1006.9 |
| 20260506170550 | 6 | 44 | 4.8 | 14.5 | 0.30 | 2.92 | 1.85 | 96 | 1006.6 |
| 20260506170053 | 6 | 73 | 1.6 | 8.0 | 0.30 | 2.90 | 1.83 | 96 | 1006.7 |
| 20260506165547 | 6 | 86 | 3.2 | 9.7 | 0.33 | 2.90 | 1.83 | 96 | 1007.0 |
| 20260506165048 | 6 | 83 | 3.2 | 11.3 | 0.30 | 2.87 | 1.80 | 96 | 1007.0 |
| 20260506164551 | 6 | 0 | 3.2 | 12.9 | 0.30 | 2.84 | 1.78 | 96 | 1007.0 |
| 20260506164048 | 6 | 75 | 4.8 | 12.9 | 0.30 | 2.82 | 1.75 | 96 | 1007.0 |
| 20260506163547 | 6 | 96 | 1.6 | 8.0 | 0.30 | 2.79 | 1.73 | 96 | 1006.8 |
| 20260506163056 | 6 | 0 | 3.2 | 8.0 | 0.28 | 2.77 | 1.70 | 96 | 1006.9 |
| 20260506162547 | 6 | 111 | 1.6 | 6.4 | 0.28 | 2.74 | 1.68 | 96 | 1007.1 |
| 20260506162047 | 6 | 49 | 1.6 | 9.7 | 0.25 | 2.67 | 1.63 | 96 | 1007.2 |
| 20260506161555 | 6 | 88 | 3.2 | 9.7 | 0.23 | 2.64 | 1.60 | 96 | 1007.1 |
| 20260506161047 | 6 | 30 | 1.6 | 11.3 | 0.20 | 2.62 | 1.55 | 96 | 1007.1 |
| 20260506160547 | 6 | 0 | 3.2 | 11.3 | 0.20 | 2.62 | 1.55 | 96 | 1007.0 |
| 20260506160053 | 6 | 341 | 1.6 | 11.3 | 0.20 | 2.59 | 1.52 | 96 | 1007.1 |
| 20260506155552 | 6 | 342 | 1.6 | 16.1 | 0.20 | 2.57 | 1.47 | 96 | 1007.0 |
| 20260506155048 | 6 | 35 | 3.2 | 16.1 | 0.18 | 2.54 | 1.47 | 96 | 1007.0 |
| 20260506154553 | 6 | 61 | 3.2 | 14.5 | 0.20 | 2.54 | 1.47 | 96 | 1007.0 |
| 20260506154047 | 6 | 26 | 3.2 | 12.9 | 0.18 | 2.51 | 1.45 | 96 | 1007.0 |
| 20260506153549 | 6 | 108 | 3.2 | 8.0 | 0.18 | 2.49 | 1.42 | 96 | 1007.0 |
| 20260506153052 | 6 | 0 | 1.6 | 4.8 | 0.18 | 2.46 | 1.40 | 96 | 1007.2 |
| 20260506152548 | 6 | 59 | 1.6 | 14.5 | 0.18 | 2.46 | 1.40 | 96 | 1007.2 |
| 20260506152047 | 6 | 74 | 4.8 | 14.5 | 0.15 | 2.44 | 1.37 | 96 | 1007.2 |
| 20260506151550 | 6 | 49 | 3.2 | 8.0 | 0.15 | 2.44 | 1.37 | 96 | 1007.3 |
| 20260506151047 | 6 | 52 | 1.6 | 14.5 | 0.13 | 2.41 | 1.32 | 96 | 1007.3 |
| 20260506150550 | 6 | 52 | 3.2 | 14.5 | 0.15 | 2.41 | 1.32 | 96 | 1007.3 |